Flag for Germany Weather past 2 weeks in Krefeld, North Rhine-Westphalia, Germany

Now
64 °F

Passing clouds.


Feels Like: 64 °F
Forecast: 58 / 74 °F
Wind: 1 mph from Northwest

Location: Duesseldorf

Current Time: Jul 29, 2014 at 4:02:19 AM

Latest Report: Jul 29, 2014 at 3:00 AM


Visibility: 13 mi

Pressure: 29.85 "Hg

Humidity: 92%

Dew point: 62 °F

Location of KrefeldLocation

Historic Weather in Krefeld — Graph

°F

Krefeld temperature yesterday

Maximum temperature yesterday: 81 °F (at 2:00 PM)
Minimum temperature yesterday: 64 °F (at 6:00 AM)
Average temperature yesterday: 71 °F

Past Weeks' High & Low Weather Summary

 TemperatureHumidityPressure
High93 °F (Jul 19, 5:00 PM)97% (Jul 26, 7:00 AM)30.19 "Hg (Jul 26, 7:00 AM)
Low53 °F (Jul 15, 3:00 AM)25% (Jul 19, 3:00 PM)29.77 "Hg (Jul 20, 5:00 AM)
Average71 °F71%29.98 "Hg
* Reported Jul 14 3:00 AM — Jul 29 3:00 AM, Krefeld, Weather by CustomWeather, © 2014

Note: Actual official high and low records may vary slightly from our data, if they occured in-between our weather recording intervals... More about our weather records

Advertising

Krefeld weather history for previous 24 hours

 ConditionsComfort  
Time TempWeatherWind HumidityBarometerVisibility
3:00 AM
Jul 29
64 °FPassing clouds.1 mph92%29.85 "Hg12 mi
2:00 AM65 °FPassing clouds.2 mph92%29.84 "Hg12 mi
1:00 AM66 °FOvercast.3 mph91%29.85 "Hg9 mi
12:00 AM66 °FLight rain. Overcast.2 mph92%29.86 "Hg7 mi
10:00 PM
Jul 28
67 °FPassing clouds.2 mph90%29.88 "Hg7 mi
9:00 PM69 °FOvercast.2 mph90%29.86 "Hg9 mi
8:00 PM71 °FOvercast.2 mph89%29.85 "Hg9 mi
7:00 PM69 °FSprinkles. Overcast.3 mph92%29.84 "Hg12 mi
6:00 PM75 °FThundershowers. Overcast.2 mph70%29.84 "Hg6 mi
4:00 PM75 °FSprinkles. Partly sunny.5 mph70%29.82 "Hg12 mi
3:00 PM78 °FScattered clouds.3 mph62%29.81 "Hg16 mi
2:00 PM81 °FPartly sunny.5 mph51%29.82 "Hg16 mi
1:00 PM80 °FScattered clouds.3 mph54%29.83 "Hg12 mi
12:00 PM78 °FPassing clouds.10 mph57%29.84 "Hg2 mi
11:00 AM77 °FPassing clouds.3 mph61%29.85 "Hg12 mi
10:00 AM74 °FScattered clouds.2 mph69%29.86 "Hg12 mi
9:00 AM71 °FOvercast.2 mph74%29.88 "Hg11 mi
8:00 AM69 °FOvercast.2 mph77%29.89 "Hg11 mi
7:00 AM66 °FOvercast.2 mph87%29.90 "Hg9 mi
6:00 AM64 °FOvercast.2 mph90%29.89 "Hg9 mi
4:00 AM65 °FOvercast.1 mph91%29.93 "Hg14 mi
Weather by CustomWeather, © 2014

See weather overviewHow to use our weather pages